NOAA 17 DEB

Satellite information

Favourite Embed

Satellite Type and Status

DEBRISIN ORBIT

Key statistics

Satellite NOAA 17 DEB at a glance.

Uptime

8356

Days in orbit

Revolutions

≈ 14.8

Per day

Orbit

SSO

Sun Synchronous Orbit

Inclination

99.0

Latest

Satellite identification and parameters

Extended collection of information and parameters for NOAA 17 DEB.

Object identification

Identified? True

Debris? True

Object name: NOAA 17 DEB

International designator: 2002-032AG

Object number (NORAD): 48615

Object ID (CCSDS): 48615

Country: UNITED STATES OF AMERICA (US)

Current information (Y/N): Y

RCS size: SMALL

Orbital parameters

Period: 97.052 minutes

Inclination: 98.9617 deg

SMA: 6995.67 km

Apoapsis: 631.169 km

Periapsis: 603.9 km

RAAN: 182.1196 deg

Eccentricy: 0.001949

Argument of periapsis: 194.4697 deg

Mean anomaly: 165.5958 deg

Mean motion: 14.83743437 rev/day

Mean motion (dot): 0.00034886 rev/day2

B* drag term: 0.0041902 1/REarth

Two-line elements (TLE)

Creation date: May 9, 2025, 6:26 a.m.

Reference frame: TEME

Reference center: EARTH

Epoch: May 8, 2025, 8:59 a.m. UTC

TLE line 0: 0 NOAA 17 DEB

TLE line 1: 1 48615U 02032AG 25128.37435033 .00034886 00000-0 41902-2 0 9994

TLE line 2: 2 48615 98.9617 182.1196 0019490 194.4697 165.5958 14.83743437219192

Live tracking on map

Real-time ground track for satellite NOAA 17 DEB.

In-orbit conjunctions

A list of the most updated potential collisions computed for object NOAA 17 DEB.

Target Orbit TCA Probability of collision Miss distance Type
NOAA 16 DEB SSO 2024-11-09 18:25:06 0.0001568133 660.0 (m) DEBRIS

Associated space launch

NOAA M carried weather imagers and microwave and infrared sounders, as well as a SARSAT search-and-rescue package. It had an on-orbit mass of 1475 kg.

NOAA 17 DEB was lifted into orbit during the mission ‘Titan II SLV | NOAA 17’, on board a Titan II SLV space rocket.

The launch took place on June 24, 2002, 6:23 p.m. from Space Launch Complex 4W.

For more information about the launch, click the button.

Launch to space Titan II SLV | NOAA 17
Titan II SLV | NOAA 17

Agency: N/A

Status: Launch Successful

Launch date: June 24, 2002, 6:23 p.m. UTC

Rocket: Titan II SLV

Launch pad: Space Launch Complex 4W

Location: Vandenberg SFB, CA, USA

...

Latest news about this satellite

There are no fresh news available about this satellite. Check back as we update our databases every day.


Newsletter sign-up

Weekly statistics, charts and insights to help you stay on top of the space industry.